Regional Weather Roundup
Issued by NWS Cleveland, OH

Home | Current Version | Previous Version | Text Only | Print | Product List | Glossary Off
Versions: 1 2 3 4 5 6 7 8 9 10 11 12 13 14 15 16 17 18 19 20 21 22 23 24 25 26 27 28 29 30 31 32 33 34 35 36 37 38 39 40 41 42 43 44 45 46 47 48 49 50

000
ASUS41 KCLE 222010
RWRCLE
OHIO REGIONAL WEATHER ROUNDUP
NATIONAL WEATHER SERVICE CLEVELAND, OH
300 PM EST MON JAN 22 2018

NOTE: "FAIR" INDICATES FEW OR NO CLOUDS BELOW 12,000 FEET WITH NO
SIGNIFICANT WEATHER AND/OR OBSTRUCTIONS TO VISIBILITY.

OHZ001>008-015>018-024>027-034-035-043-044-222100-
   NORTHWEST OHIO

CITY           SKY/WX    TMP DP  RH WIND       PRES   REMARKS
DEFIANCE       PTSUNNY   53  46  77 S13G28    29.63F
FINDLAY        CLOUDY    55  46  71 S23G32    29.67F
TOLEDO EXPRESS LGT RAIN  53  50  89 S15G28    29.65F
TOLEDO EXEC    LGT RAIN  54  47  77 S26G39    29.67F
LIMA           CLOUDY    54  48  80 S21G31    29.65F
$$

OHZ009>014-019>023-028>033-038-089-222100-
   NORTHEAST OHIO

CITY           SKY/WX    TMP DP  RH WIND       PRES   REMARKS
CLE-HOPKINS    CLOUDY    60  46  59 S17G23    29.78F
CLE-LAKEFRONT  FAIR      61  44  53 S15G24    29.76F
CUY CO. ARPT   PTSUNNY   63  34  34 S14G20    29.79F
LORAIN-ELYRIA  FAIR      58  42  55 S14       29.75
ASHTABULA      FAIR      57  48  72 S8        29.81F
AKRON-CANTON   CLOUDY    59  45  59 S12       29.81F
WOOSTER        FAIR      57  45  64 S9        29.79F
MANSFIELD      PTSUNNY   57  45  64 S20G31    29.76F
YOUNGSTOWN     CLOUDY    56  46  69 SE10      29.82F
$$

OHZ042-051>053-060>062-070>072-077>081-222100-
  SOUTHWEST OHIO

CITY           SKY/WX    TMP DP  RH WIND       PRES   REMARKS
CINC-COVINGTON LGT RAIN  53  50  89 S15       29.71F FOG
CINC-LUNKEN    LGT RAIN  55  49  80 S8        29.74F
HAMILTON       LGT RAIN  54  50  86 SE7       29.72F
DAYTON         LGT RAIN  52  50  93 S20G25    29.71F
WRIGHT-PAT AFB CLOUDY    53  49  86 S10       29.72F
DAYTON GENERAL LGT RAIN  53  48  83 S14       29.72F
WILMINGTON     LGT RAIN  53  48  83 S17       29.74F
$$

OHZ036-037-039>041-045>050-054>059-063>069-073>076-082>088-222100-
  CENTRAL AND SOUTHEAST OHIO

CITY           SKY/WX    TMP DP  RH WIND       PRES   REMARKS
COLUMBUS       LGT RAIN  58  47  66 S14G24    29.79F
OSU AIRPORT    LGT RAIN  56  48  74 S14       29.76F
BOLTON FIELD   LGT RAIN  54  46  76 S12       29.79F
RICKENBACK AFB NOT AVBL
NEWARK         FAIR      59  44  57 S13       29.79F
MARION         LGT RAIN  54  45  71 S21G29    29.74F
LANCASTER      CLOUDY    59  45  59 S9        29.81F
ZANESVILLE     FAIR      61  46  57 S8        29.83F
NEW PHILLY     NOT AVBL
$$



USA.gov is the U.S. government's official web portal to all federal, state and local government web resources and services.